Year,Month,Day,Hour,Minute,Value (Times are PST for temperature in C)
2009,07,25,00,00,15.90
2009,07,25,00,01,15.90
2009,07,25,00,02,15.90
2009,07,25,00,03,15.90
2009,07,25,00,04,16.00
2009,07,25,00,05,16.10
2009,07,25,00,06,16.10
2009,07,25,00,07,16.10
2009,07,25,00,08,16.10
2009,07,25,00,09,16.20
2009,07,25,00,10,16.20
2009,07,25,00,11,16.30
2009,07,25,00,12,16.40
2009,07,25,00,13,16.40
2009,07,25,00,14,16.50
2009,07,25,00,15,16.60
2009,07,25,00,16,16.70
2009,07,25,00,17,16.70
2009,07,25,00,18,16.80
2009,07,25,00,19,16.90
2009,07,25,00,20,17.10
2009,07,25,00,21,17.20
2009,07,25,00,22,17.30
2009,07,25,00,23,17.40
2009,07,25,00,24,17.50
2009,07,25,00,25,17.50
2009,07,25,00,26,17.60
2009,07,25,00,27,17.70
2009,07,25,00,28,17.70
2009,07,25,00,29,17.80
2009,07,25,00,30,17.90
2009,07,25,00,31,17.90
2009,07,25,00,32,18.10
2009,07,25,00,33,18.20
2009,07,25,00,34,18.30
2009,07,25,00,35,18.40
2009,07,25,00,36,18.50
2009,07,25,00,37,18.60
2009,07,25,00,38,18.70
2009,07,25,00,39,18.70
2009,07,25,00,40,18.80
2009,07,25,00,41,18.90
2009,07,25,00,42,18.90
2009,07,25,00,43,18.90
2009,07,25,00,44,18.90
2009,07,25,00,45,18.90
2009,07,25,00,46,18.90
2009,07,25,00,47,18.90
2009,07,25,00,48,18.90
2009,07,25,00,49,18.90
2009,07,25,00,50,18.80
2009,07,25,00,51,18.70
2009,07,25,00,52,18.60
2009,07,25,00,53,18.50
2009,07,25,00,54,18.40
2009,07,25,00,55,18.30
2009,07,25,00,56,18.20
2009,07,25,00,57,18.00
2009,07,25,00,58,17.90
2009,07,25,00,59,17.90
2009,07,25,01,00,17.80
2009,07,25,01,01,17.80
2009,07,25,01,02,17.70
2009,07,25,01,03,17.60
2009,07,25,01,04,17.60
2009,07,25,01,05,17.60
2009,07,25,01,06,17.60
2009,07,25,01,07,17.60
2009,07,25,01,08,17.60
2009,07,25,01,09,17.60
2009,07,25,01,10,17.60
2009,07,25,01,11,17.60
2009,07,25,01,12,17.60
2009,07,25,01,13,17.60
2009,07,25,01,14,17.60
2009,07,25,01,15,17.60
2009,07,25,01,16,17.60
2009,07,25,01,17,17.60
2009,07,25,01,18,17.60
2009,07,25,01,19,17.60
2009,07,25,01,20,17.50
2009,07,25,01,21,17.50
2009,07,25,01,22,17.50
2009,07,25,01,23,17.40
2009,07,25,01,24,17.40
2009,07,25,01,25,17.40
2009,07,25,01,26,17.30
2009,07,25,01,27,17.30
2009,07,25,01,28,17.30
2009,07,25,01,29,17.30
2009,07,25,01,30,17.30
2009,07,25,01,31,17.30
2009,07,25,01,32,17.30
2009,07,25,01,33,17.30
2009,07,25,01,34,17.30
2009,07,25,01,35,17.30
2009,07,25,01,36,17.30
2009,07,25,01,37,17.30
2009,07,25,01,38,17.30
2009,07,25,01,39,17.30
2009,07,25,01,40,17.20
2009,07,25,01,41,17.20
2009,07,25,01,42,17.20
2009,07,25,01,43,17.20
2009,07,25,01,44,17.20
2009,07,25,01,45,17.20
2009,07,25,01,46,17.10
2009,07,25,01,47,17.10
2009,07,25,01,48,17.10
2009,07,25,01,49,17.00
2009,07,25,01,50,17.00
2009,07,25,01,51,16.90
2009,07,25,01,52,16.80
2009,07,25,01,53,16.80
2009,07,25,01,54,16.80
2009,07,25,01,55,16.70
2009,07,25,01,56,16.70
2009,07,25,01,57,16.70
2009,07,25,01,58,16.70
2009,07,25,01,59,16.30
2009,07,25,02,00,16.00
2009,07,25,02,01,15.50
2009,07,25,02,02,15.20
2009,07,25,02,03,14.90
2009,07,25,02,04,14.70
2009,07,25,02,05,14.50
2009,07,25,02,06,14.30
2009,07,25,02,07,14.10
2009,07,25,02,08,14.00
2009,07,25,02,09,13.90
2009,07,25,02,10,13.80
2009,07,25,02,11,13.70
2009,07,25,02,12,13.60
2009,07,25,02,13,13.60
2009,07,25,02,14,13.50
2009,07,25,02,15,13.50
2009,07,25,02,16,13.40
2009,07,25,02,17,13.40
2009,07,25,02,18,13.40
2009,07,25,02,19,13.30
2009,07,25,02,20,13.30
2009,07,25,02,21,13.30
2009,07,25,02,22,13.30
2009,07,25,02,23,13.30
2009,07,25,02,24,13.30
2009,07,25,02,25,13.30
2009,07,25,02,26,13.30
2009,07,25,02,27,13.30
2009,07,25,02,28,13.30
2009,07,25,02,29,13.30
2009,07,25,02,30,13.30
2009,07,25,02,31,13.30
2009,07,25,02,32,13.20
2009,07,25,02,33,13.20
2009,07,25,02,34,13.20
2009,07,25,02,35,13.20
2009,07,25,02,36,13.10
2009,07,25,02,37,13.10
2009,07,25,02,38,13.10
2009,07,25,02,39,13.10
2009,07,25,02,40,13.20
2009,07,25,02,41,13.20
2009,07,25,02,42,13.20
2009,07,25,02,43,13.20
2009,07,25,02,44,13.20
2009,07,25,02,45,13.10
2009,07,25,02,46,13.10
2009,07,25,02,47,13.00
2009,07,25,02,48,13.00
2009,07,25,02,49,13.00
2009,07,25,02,50,12.90
2009,07,25,02,51,12.90
2009,07,25,02,52,12.90
2009,07,25,02,53,12.80
2009,07,25,02,54,12.80
2009,07,25,02,55,12.80
2009,07,25,02,56,12.80
2009,07,25,02,57,12.70
2009,07,25,02,58,12.70
2009,07,25,02,59,12.70
2009,07,25,03,00,12.60
2009,07,25,03,01,12.60
2009,07,25,03,02,12.60
2009,07,25,03,03,12.60
2009,07,25,03,04,12.60
2009,07,25,03,05,12.50
2009,07,25,03,06,12.50
2009,07,25,03,07,12.50
2009,07,25,03,08,12.50
2009,07,25,03,09,12.50
2009,07,25,03,10,12.50
2009,07,25,03,11,12.50
2009,07,25,03,12,12.40
2009,07,25,03,13,12.40
2009,07,25,03,14,12.40
2009,07,25,03,15,12.40
2009,07,25,03,16,12.40
2009,07,25,03,17,12.50
2009,07,25,03,18,12.50
2009,07,25,03,19,12.50
2009,07,25,03,20,12.50
2009,07,25,03,21,12.50
2009,07,25,03,22,12.60
2009,07,25,03,23,12.60
2009,07,25,03,24,12.60
2009,07,25,03,25,12.60
2009,07,25,03,26,12.70
2009,07,25,03,27,12.70
2009,07,25,03,28,12.70
2009,07,25,03,29,12.70
2009,07,25,03,30,12.70
2009,07,25,03,31,12.80
2009,07,25,03,32,12.80
2009,07,25,03,33,12.80
2009,07,25,03,34,12.80
2009,07,25,03,35,12.80
2009,07,25,03,36,12.80
2009,07,25,03,37,12.80
2009,07,25,03,38,12.80
2009,07,25,03,39,12.80
2009,07,25,03,40,12.80
2009,07,25,03,41,12.80
2009,07,25,03,42,12.90
2009,07,25,03,43,12.90
2009,07,25,03,44,12.90
2009,07,25,03,45,12.90
2009,07,25,03,46,12.90
2009,07,25,03,47,12.90
2009,07,25,03,48,12.90
2009,07,25,03,49,12.90
2009,07,25,03,50,12.80
2009,07,25,03,51,12.80
2009,07,25,03,52,12.80
2009,07,25,03,53,12.80
2009,07,25,03,54,12.80
2009,07,25,03,55,12.80
2009,07,25,03,56,12.80
2009,07,25,03,57,12.90
2009,07,25,03,58,12.90
2009,07,25,03,59,13.00
2009,07,25,04,00,13.00
2009,07,25,04,01,13.00
2009,07,25,04,02,13.00
2009,07,25,04,03,13.00
2009,07,25,04,04,13.10
2009,07,25,04,05,13.10
2009,07,25,04,06,13.20
2009,07,25,04,07,13.20
2009,07,25,04,08,13.30
2009,07,25,04,09,13.30
2009,07,25,04,10,13.40
2009,07,25,04,11,13.40
2009,07,25,04,12,13.50
2009,07,25,04,13,13.50
2009,07,25,04,14,13.60
2009,07,25,04,15,13.60
2009,07,25,04,16,13.70
2009,07,25,04,17,13.80
2009,07,25,04,18,13.90
2009,07,25,04,19,14.00
2009,07,25,04,20,14.10
2009,07,25,04,21,14.20
2009,07,25,04,22,14.20
2009,07,25,04,23,14.30
2009,07,25,04,24,14.40
2009,07,25,04,25,14.40
2009,07,25,04,26,14.50
2009,07,25,04,27,14.50
2009,07,25,04,28,14.60
2009,07,25,04,29,14.60
2009,07,25,04,30,14.60
2009,07,25,04,31,14.70
2009,07,25,04,32,14.70
2009,07,25,04,33,14.80
2009,07,25,04,34,14.80
2009,07,25,04,35,14.80
2009,07,25,04,36,14.70
2009,07,25,04,37,14.60
2009,07,25,04,38,14.50
2009,07,25,04,39,14.50
2009,07,25,04,40,14.40
2009,07,25,04,41,14.30
2009,07,25,04,42,14.30
2009,07,25,04,43,14.20
2009,07,25,04,44,14.20
2009,07,25,04,45,14.20
2009,07,25,04,46,14.20
2009,07,25,04,47,14.10
2009,07,25,04,48,14.10
2009,07,25,04,49,14.10
2009,07,25,04,50,14.10
2009,07,25,04,51,14.00
2009,07,25,04,52,14.00
2009,07,25,04,53,14.00
2009,07,25,04,54,14.00
2009,07,25,04,55,14.00
2009,07,25,04,56,14.00
2009,07,25,04,57,14.00
2009,07,25,04,58,14.00
2009,07,25,04,59,14.00
2009,07,25,05,00,13.90
2009,07,25,05,01,13.90
2009,07,25,05,02,13.90
2009,07,25,05,03,13.90
2009,07,25,05,04,14.00
2009,07,25,05,05,14.00
2009,07,25,05,06,14.00
2009,07,25,05,07,14.00
2009,07,25,05,08,14.00
2009,07,25,05,09,14.10
2009,07,25,05,10,14.10
2009,07,25,05,11,14.10
2009,07,25,05,12,14.10
2009,07,25,05,13,14.10
2009,07,25,05,14,14.20
2009,07,25,05,15,14.20
2009,07,25,05,16,14.20
2009,07,25,05,17,14.20
2009,07,25,05,18,14.20
2009,07,25,05,19,14.30
2009,07,25,05,20,14.30
2009,07,25,05,21,14.30
2009,07,25,05,22,14.30
2009,07,25,05,23,14.30
2009,07,25,05,24,14.30
2009,07,25,05,25,14.30
2009,07,25,05,26,14.30
2009,07,25,05,27,14.30
2009,07,25,05,28,14.30
2009,07,25,05,29,14.30
2009,07,25,05,30,14.30
2009,07,25,05,31,14.30
2009,07,25,05,32,14.30
2009,07,25,05,33,14.20
2009,07,25,05,34,14.20
2009,07,25,05,35,14.20
2009,07,25,05,36,14.20
2009,07,25,05,37,14.20
2009,07,25,05,38,14.20
2009,07,25,05,39,14.20
2009,07,25,05,40,14.20
2009,07,25,05,41,14.20
2009,07,25,05,42,14.20
2009,07,25,05,43,14.20
2009,07,25,05,44,14.20
2009,07,25,05,45,14.20
2009,07,25,05,46,14.20
2009,07,25,05,47,14.30
2009,07,25,05,48,14.40
2009,07,25,05,49,14.40
2009,07,25,05,50,14.50
2009,07,25,05,51,14.50
2009,07,25,05,52,14.60
2009,07,25,05,53,14.60
2009,07,25,05,54,14.70
2009,07,25,05,55,14.70
2009,07,25,05,56,14.80
2009,07,25,05,57,14.80
2009,07,25,05,58,14.80
2009,07,25,05,59,14.80
2009,07,25,06,00,14.80
2009,07,25,06,01,14.90
2009,07,25,06,02,14.90
2009,07,25,06,03,14.90
2009,07,25,06,04,14.90
2009,07,25,06,05,14.90
2009,07,25,06,06,15.00
2009,07,25,06,07,15.00
2009,07,25,06,08,15.00
2009,07,25,06,09,15.00
2009,07,25,06,10,15.10
2009,07,25,06,11,15.10
2009,07,25,06,12,15.10
2009,07,25,06,13,15.10
2009,07,25,06,14,15.10
2009,07,25,06,15,15.10
2009,07,25,06,16,15.20
2009,07,25,06,17,15.20
2009,07,25,06,18,15.20
2009,07,25,06,19,15.20
2009,07,25,06,20,15.20
2009,07,25,06,21,15.20
2009,07,25,06,22,15.20
2009,07,25,06,23,15.20
2009,07,25,06,24,15.20
2009,07,25,06,25,15.20
2009,07,25,06,26,15.20
2009,07,25,06,27,15.20
2009,07,25,06,28,15.20
2009,07,25,06,29,15.20
2009,07,25,06,30,15.20
2009,07,25,06,31,15.10
2009,07,25,06,32,15.10
2009,07,25,06,33,15.10
2009,07,25,06,34,15.10
2009,07,25,06,35,15.10
2009,07,25,06,36,15.10
2009,07,25,06,37,15.10
2009,07,25,06,38,15.10
2009,07,25,06,39,15.10
2009,07,25,06,40,15.10
2009,07,25,06,41,15.10
2009,07,25,06,42,15.20
2009,07,25,06,43,15.20
2009,07,25,06,44,15.20
2009,07,25,06,45,15.20
2009,07,25,06,46,15.30
2009,07,25,06,47,15.30
2009,07,25,06,48,15.30
2009,07,25,06,49,15.30
2009,07,25,06,50,15.30
2009,07,25,06,51,15.30
2009,07,25,06,52,15.30
2009,07,25,06,53,15.40
2009,07,25,06,54,15.40
2009,07,25,06,55,15.40
2009,07,25,06,56,15.50
2009,07,25,06,57,15.50
2009,07,25,06,58,15.50
2009,07,25,06,59,15.60
2009,07,25,07,00,15.60
2009,07,25,07,01,15.70
2009,07,25,07,02,15.70
2009,07,25,07,03,15.70
2009,07,25,07,04,15.80
2009,07,25,07,05,15.80
2009,07,25,07,06,15.80
2009,07,25,07,07,15.80
2009,07,25,07,08,15.80
2009,07,25,07,09,15.90
2009,07,25,07,10,15.90
2009,07,25,07,11,16.00
2009,07,25,07,12,16.10
2009,07,25,07,13,16.10
2009,07,25,07,14,16.20
2009,07,25,07,15,16.20
2009,07,25,07,16,16.30
2009,07,25,07,17,16.30
2009,07,25,07,18,16.40
2009,07,25,07,19,16.40
2009,07,25,07,20,16.40
2009,07,25,07,21,16.40
2009,07,25,07,22,16.60
2009,07,25,07,23,16.60
2009,07,25,07,24,16.70
2009,07,25,07,25,16.70
2009,07,25,07,26,16.70
2009,07,25,07,27,16.70
2009,07,25,07,28,16.80
2009,07,25,07,29,16.80
2009,07,25,07,30,16.80
2009,07,25,07,31,16.90
2009,07,25,07,32,16.90
2009,07,25,07,33,16.90
2009,07,25,07,34,16.90
2009,07,25,07,35,17.00
2009,07,25,07,36,17.00
2009,07,25,07,37,17.00
2009,07,25,07,38,17.00
2009,07,25,07,39,17.00
2009,07,25,07,40,17.10
2009,07,25,07,41,17.10
2009,07,25,07,42,17.10
2009,07,25,07,43,17.10
2009,07,25,07,44,17.10
2009,07,25,07,45,17.10
2009,07,25,07,46,17.10
2009,07,25,07,47,17.10
2009,07,25,07,48,17.20
2009,07,25,07,49,17.20
2009,07,25,07,50,17.10
2009,07,25,07,51,17.10
2009,07,25,07,52,17.10
2009,07,25,07,53,17.10
2009,07,25,07,54,17.10
2009,07,25,07,55,17.10
2009,07,25,07,56,17.10
2009,07,25,07,57,17.10
2009,07,25,07,58,17.10
2009,07,25,07,59,17.10
2009,07,25,08,00,17.20
2009,07,25,08,01,17.20
2009,07,25,08,02,17.30
2009,07,25,08,03,17.30
2009,07,25,08,04,17.30
2009,07,25,08,05,17.30
2009,07,25,08,06,17.40
2009,07,25,08,07,17.40
2009,07,25,08,08,17.50
2009,07,25,08,09,17.50
2009,07,25,08,10,17.50
2009,07,25,08,11,17.60
2009,07,25,08,12,17.70
2009,07,25,08,13,17.70
2009,07,25,08,14,17.80
2009,07,25,08,15,17.90
2009,07,25,08,16,18.00
2009,07,25,08,17,18.20
2009,07,25,08,18,18.30
2009,07,25,08,19,18.40
2009,07,25,08,20,18.50
2009,07,25,08,21,18.50
2009,07,25,08,22,18.40
2009,07,25,08,23,18.30
2009,07,25,08,24,18.20
2009,07,25,08,25,18.10
2009,07,25,08,26,17.80
2009,07,25,08,27,17.70
2009,07,25,08,28,17.50
2009,07,25,08,29,17.30
2009,07,25,08,30,17.10
2009,07,25,08,31,17.00
2009,07,25,08,32,16.90
2009,07,25,08,33,16.90
2009,07,25,08,34,16.80
2009,07,25,08,35,16.80
2009,07,25,08,36,16.80
2009,07,25,08,37,16.70
2009,07,25,08,38,16.70
2009,07,25,08,39,16.70
2009,07,25,08,40,16.70
2009,07,25,08,41,16.60
2009,07,25,08,42,16.60
2009,07,25,08,43,16.60
2009,07,25,08,44,16.60
2009,07,25,08,45,16.60
2009,07,25,08,46,16.70
2009,07,25,08,47,16.70
2009,07,25,08,48,16.90
2009,07,25,08,49,17.00
2009,07,25,08,50,17.10
2009,07,25,08,51,17.30
2009,07,25,08,52,17.40
2009,07,25,08,53,17.50
2009,07,25,08,54,17.70
2009,07,25,08,55,17.80
2009,07,25,08,56,17.90
2009,07,25,08,57,18.00
2009,07,25,08,58,18.10
2009,07,25,08,59,18.20
2009,07,25,09,00,18.30
2009,07,25,09,01,18.40
2009,07,25,09,02,18.50
2009,07,25,09,03,18.60
2009,07,25,09,04,18.70
2009,07,25,09,05,18.70
2009,07,25,09,06,18.70
2009,07,25,09,07,18.80
2009,07,25,09,08,18.90
2009,07,25,09,09,19.00
2009,07,25,09,10,19.10
2009,07,25,09,11,19.20
2009,07,25,09,12,19.40
2009,07,25,09,13,19.60
2009,07,25,09,14,19.80
2009,07,25,09,15,19.90
2009,07,25,09,16,20.10
2009,07,25,09,17,20.20
2009,07,25,09,18,20.40
2009,07,25,09,19,20.50
2009,07,25,09,20,20.70
2009,07,25,09,21,20.80
2009,07,25,09,22,21.00
2009,07,25,09,23,21.00
2009,07,25,09,24,21.10
2009,07,25,09,25,21.20
2009,07,25,09,26,21.20
2009,07,25,09,27,21.30
2009,07,25,09,28,21.30
2009,07,25,09,29,21.30
2009,07,25,09,30,21.40
2009,07,25,09,31,21.30
2009,07,25,09,32,21.30
2009,07,25,09,33,21.20
2009,07,25,09,34,21.20
2009,07,25,09,35,21.10
2009,07,25,09,36,21.00
2009,07,25,09,37,20.90
2009,07,25,09,38,20.70
2009,07,25,09,39,20.50
2009,07,25,09,40,20.20
2009,07,25,09,41,19.80
2009,07,25,09,42,19.40
2009,07,25,09,43,19.00
2009,07,25,09,44,18.70
2009,07,25,09,45,18.30
2009,07,25,09,46,18.10
2009,07,25,09,47,17.90
2009,07,25,09,48,17.70
2009,07,25,09,49,17.50
2009,07,25,09,50,17.40
2009,07,25,09,51,17.20
2009,07,25,09,52,17.00
2009,07,25,09,53,16.80
2009,07,25,09,54,16.70
2009,07,25,09,55,16.60
2009,07,25,09,56,16.50
2009,07,25,09,57,16.40
2009,07,25,09,58,16.40
2009,07,25,09,59,16.40
2009,07,25,10,00,16.40
2009,07,25,10,01,16.50
2009,07,25,10,02,16.70
2009,07,25,10,03,16.70
2009,07,25,10,04,16.80
2009,07,25,10,05,16.90
2009,07,25,10,06,16.90
2009,07,25,10,07,16.90
2009,07,25,10,08,17.00
2009,07,25,10,09,17.10
2009,07,25,10,10,17.30
2009,07,25,10,11,17.50
2009,07,25,10,12,17.70
2009,07,25,10,13,17.90
2009,07,25,10,14,18.00
2009,07,25,10,15,18.20
2009,07,25,10,16,18.50
2009,07,25,10,17,18.70
2009,07,25,10,18,18.80
2009,07,25,10,19,19.00
2009,07,25,10,20,19.10
2009,07,25,10,21,19.30
2009,07,25,10,22,19.50
2009,07,25,10,23,19.60
2009,07,25,10,24,19.60
2009,07,25,10,25,19.70
2009,07,25,10,26,19.80
2009,07,25,10,27,19.80
2009,07,25,10,28,19.90
2009,07,25,10,29,19.90
2009,07,25,10,30,20.10
2009,07,25,10,31,20.10
2009,07,25,10,32,20.10
2009,07,25,10,33,20.20
2009,07,25,10,34,20.20
2009,07,25,10,35,20.20
2009,07,25,10,36,20.10
2009,07,25,10,37,20.10
2009,07,25,10,38,20.10
2009,07,25,10,39,20.10
2009,07,25,10,40,20.10
2009,07,25,10,41,20.10
2009,07,25,10,42,20.10
2009,07,25,10,43,20.10
2009,07,25,10,44,20.10
2009,07,25,10,45,20.20
2009,07,25,10,46,20.30
2009,07,25,10,47,20.40
2009,07,25,10,48,20.40
2009,07,25,10,49,20.50
2009,07,25,10,50,20.60
2009,07,25,10,51,20.70
2009,07,25,10,52,20.80
2009,07,25,10,53,20.90
2009,07,25,10,54,21.00
2009,07,25,10,55,21.10
2009,07,25,10,56,21.30
2009,07,25,10,57,21.30
2009,07,25,10,58,21.40
2009,07,25,10,59,21.40
2009,07,25,11,00,21.50
2009,07,25,11,01,21.60
2009,07,25,11,02,21.60
2009,07,25,11,03,21.60
2009,07,25,11,04,21.60
2009,07,25,11,05,21.60
2009,07,25,11,06,21.70
2009,07,25,11,07,21.80
2009,07,25,11,08,21.80
2009,07,25,11,09,21.70
2009,07,25,11,10,21.80
2009,07,25,11,11,21.90
2009,07,25,11,12,22.00
2009,07,25,11,13,21.90
2009,07,25,11,14,21.80
2009,07,25,11,15,21.80
2009,07,25,11,16,21.80
2009,07,25,11,17,21.90
2009,07,25,11,18,21.80
2009,07,25,11,19,21.80
2009,07,25,11,20,21.90
2009,07,25,11,21,21.80
2009,07,25,11,22,21.60
2009,07,25,11,23,21.60
2009,07,25,11,24,21.50
2009,07,25,11,25,21.40
2009,07,25,11,26,21.40
2009,07,25,11,27,21.40
2009,07,25,11,28,21.50
2009,07,25,11,29,21.60
2009,07,25,11,30,21.60
2009,07,25,11,31,21.60
2009,07,25,11,32,21.80
2009,07,25,11,33,21.90
2009,07,25,11,34,22.00
2009,07,25,11,35,22.00
2009,07,25,11,36,22.20
2009,07,25,11,37,22.30
2009,07,25,11,38,22.40
2009,07,25,11,39,22.50
2009,07,25,11,40,22.60
2009,07,25,11,41,22.60
2009,07,25,11,42,22.60
2009,07,25,11,43,22.60
2009,07,25,11,44,22.60
2009,07,25,11,45,22.50
2009,07,25,11,46,22.30
2009,07,25,11,47,22.40
2009,07,25,11,48,22.50
2009,07,25,11,49,22.70
2009,07,25,11,50,22.60
2009,07,25,11,51,22.60
2009,07,25,11,52,22.70
2009,07,25,11,53,22.70
2009,07,25,11,54,22.50
2009,07,25,11,55,22.30
2009,07,25,11,56,22.20
2009,07,25,11,57,22.00
2009,07,25,11,58,21.80
2009,07,25,11,59,21.80
2009,07,25,12,00,21.80
2009,07,25,12,01,21.70
2009,07,25,12,02,21.70
2009,07,25,12,03,21.60
2009,07,25,12,04,21.60
2009,07,25,12,05,21.60
2009,07,25,12,06,21.60
2009,07,25,12,07,21.60
2009,07,25,12,08,21.60
2009,07,25,12,09,21.70
2009,07,25,12,10,21.60
2009,07,25,12,11,21.50
2009,07,25,12,12,21.40
2009,07,25,12,13,21.30
2009,07,25,12,14,21.40
2009,07,25,12,15,21.40
2009,07,25,12,16,21.30
2009,07,25,12,17,21.30
2009,07,25,12,18,21.30
2009,07,25,12,19,21.30
2009,07,25,12,20,21.30
2009,07,25,12,21,21.40
2009,07,25,12,22,21.40
2009,07,25,12,23,21.40
2009,07,25,12,24,21.30
2009,07,25,12,25,21.30
2009,07,25,12,26,21.30
2009,07,25,12,27,21.50
2009,07,25,12,28,21.60
2009,07,25,12,29,21.60
2009,07,25,12,30,21.80
2009,07,25,12,31,22.00
2009,07,25,12,32,22.10
2009,07,25,12,33,22.00
2009,07,25,12,34,22.00
2009,07,25,12,35,21.90
2009,07,25,12,36,21.70
2009,07,25,12,37,21.60
2009,07,25,12,38,21.50
2009,07,25,12,39,21.30
2009,07,25,12,40,21.30
2009,07,25,12,41,21.30
2009,07,25,12,42,21.30
2009,07,25,12,43,21.30
2009,07,25,12,44,21.30
2009,07,25,12,45,21.30
2009,07,25,12,46,21.20
2009,07,25,12,47,21.30
2009,07,25,12,48,21.20
2009,07,25,12,49,21.20
2009,07,25,12,50,21.30
2009,07,25,12,51,21.40
2009,07,25,12,52,21.60
2009,07,25,12,53,21.80
2009,07,25,12,54,21.80
2009,07,25,12,55,21.90
2009,07,25,12,56,22.00
2009,07,25,12,57,22.10
2009,07,25,12,58,22.30
2009,07,25,12,59,22.30
2009,07,25,13,00,22.30
2009,07,25,13,01,22.40
2009,07,25,13,02,22.50
2009,07,25,13,03,22.50
2009,07,25,13,04,22.40
2009,07,25,13,05,22.40
2009,07,25,13,06,22.40
2009,07,25,13,07,22.40
2009,07,25,13,08,22.50
2009,07,25,13,09,22.60
2009,07,25,13,10,22.70
2009,07,25,13,11,22.80
2009,07,25,13,12,22.80
2009,07,25,13,13,22.90
2009,07,25,13,14,23.00
2009,07,25,13,15,23.10
2009,07,25,13,16,23.10
2009,07,25,13,17,23.00
2009,07,25,13,18,22.90
2009,07,25,13,19,22.80
2009,07,25,13,20,22.70
2009,07,25,13,21,22.60
2009,07,25,13,22,22.60
2009,07,25,13,23,22.60
2009,07,25,13,24,22.70
2009,07,25,13,25,22.90
2009,07,25,13,26,23.00
2009,07,25,13,27,23.20
2009,07,25,13,28,23.30
2009,07,25,13,29,23.40
2009,07,25,13,30,23.50
2009,07,25,13,31,23.60
2009,07,25,13,32,23.70
2009,07,25,13,33,23.70
2009,07,25,13,34,23.80
2009,07,25,13,35,23.80
2009,07,25,13,36,23.70
2009,07,25,13,37,23.70
2009,07,25,13,38,23.50
2009,07,25,13,39,23.30
2009,07,25,13,40,23.30
2009,07,25,13,41,23.30
2009,07,25,13,42,23.40
2009,07,25,13,43,23.50
2009,07,25,13,44,23.60
2009,07,25,13,45,23.50
2009,07,25,13,46,23.40
2009,07,25,13,47,23.40
2009,07,25,13,48,23.30
2009,07,25,13,49,23.30
2009,07,25,13,50,23.30
2009,07,25,13,51,23.30
2009,07,25,13,52,23.40
2009,07,25,13,53,23.40
2009,07,25,13,54,23.30
2009,07,25,13,55,23.30
2009,07,25,13,56,23.30
2009,07,25,13,57,23.20
2009,07,25,13,58,23.10
2009,07,25,13,59,23.20
2009,07,25,14,00,23.20
2009,07,25,14,01,23.20
2009,07,25,14,02,23.20
2009,07,25,14,03,23.00
2009,07,25,14,04,22.90
2009,07,25,14,05,22.70
2009,07,25,14,06,22.70
2009,07,25,14,07,22.60
2009,07,25,14,08,22.50
2009,07,25,14,09,22.50
2009,07,25,14,10,22.40
2009,07,25,14,11,22.40
2009,07,25,14,12,22.60
2009,07,25,14,13,22.60
2009,07,25,14,14,22.60
2009,07,25,14,15,22.50
2009,07,25,14,16,22.60
2009,07,25,14,17,22.70
2009,07,25,14,18,22.70
2009,07,25,14,19,22.90
2009,07,25,14,20,22.90
2009,07,25,14,21,22.90
2009,07,25,14,22,22.90
2009,07,25,14,23,22.80
2009,07,25,14,24,22.80
2009,07,25,14,25,22.80
2009,07,25,14,26,22.80
2009,07,25,14,27,22.80
2009,07,25,14,28,22.80
2009,07,25,14,29,22.80
2009,07,25,14,30,22.90
2009,07,25,14,31,22.90
2009,07,25,14,32,22.90
2009,07,25,14,33,23.00
2009,07,25,14,34,23.10
2009,07,25,14,35,23.20
2009,07,25,14,36,23.30
2009,07,25,14,37,23.20
2009,07,25,14,38,23.10
2009,07,25,14,39,23.10
2009,07,25,14,40,23.10
2009,07,25,14,41,22.90
2009,07,25,14,42,23.00
2009,07,25,14,43,23.10
2009,07,25,14,44,23.20
2009,07,25,14,45,23.30
2009,07,25,14,46,23.50
2009,07,25,14,47,23.60
2009,07,25,14,48,23.70
2009,07,25,14,49,23.70
2009,07,25,14,50,23.70
2009,07,25,14,51,23.70
2009,07,25,14,52,23.70
2009,07,25,14,53,23.70
2009,07,25,14,54,23.70
2009,07,25,14,55,23.70
2009,07,25,14,56,23.70
2009,07,25,14,57,23.70
2009,07,25,14,58,23.70
2009,07,25,14,59,23.60
2009,07,25,15,00,23.70
2009,07,25,15,01,23.70
2009,07,25,15,02,23.70
2009,07,25,15,03,23.70
2009,07,25,15,04,23.70
2009,07,25,15,05,23.70
2009,07,25,15,06,23.60
2009,07,25,15,07,23.50
2009,07,25,15,08,23.60
2009,07,25,15,09,23.60
2009,07,25,15,10,23.70
2009,07,25,15,11,23.70
2009,07,25,15,12,23.60
2009,07,25,15,13,23.60
2009,07,25,15,14,23.70
2009,07,25,15,15,23.70
2009,07,25,15,16,23.80
2009,07,25,15,17,23.80
2009,07,25,15,18,23.80
2009,07,25,15,19,23.70
2009,07,25,15,20,23.70
2009,07,25,15,21,23.70
2009,07,25,15,22,23.60
2009,07,25,15,23,23.60
2009,07,25,15,24,23.60
2009,07,25,15,25,23.60
2009,07,25,15,26,23.60
2009,07,25,15,27,23.60
2009,07,25,15,28,23.70
2009,07,25,15,29,23.80
2009,07,25,15,30,23.80
2009,07,25,15,31,24.00
2009,07,25,15,32,24.10
2009,07,25,15,33,24.10
2009,07,25,15,34,24.10
2009,07,25,15,35,24.10
2009,07,25,15,36,24.00
2009,07,25,15,37,23.80
2009,07,25,15,38,23.70
2009,07,25,15,39,23.60
2009,07,25,15,40,23.60
2009,07,25,15,41,23.70
2009,07,25,15,42,23.60
2009,07,25,15,43,23.60
2009,07,25,15,44,23.70
2009,07,25,15,45,23.70
2009,07,25,15,46,23.70
2009,07,25,15,47,23.70
2009,07,25,15,48,23.80
2009,07,25,15,49,23.80
2009,07,25,15,50,23.80
2009,07,25,15,51,23.70
2009,07,25,15,52,23.70
2009,07,25,15,53,23.70
2009,07,25,15,54,23.60
2009,07,25,15,55,23.50
2009,07,25,15,56,23.40
2009,07,25,15,57,23.30
2009,07,25,15,58,23.30
2009,07,25,15,59,23.20
2009,07,25,16,00,23.10
2009,07,25,16,01,23.00
2009,07,25,16,02,23.10
2009,07,25,16,03,23.00
2009,07,25,16,04,22.90
2009,07,25,16,05,22.90
2009,07,25,16,06,22.90
2009,07,25,16,07,23.10
2009,07,25,16,08,23.20
2009,07,25,16,09,23.20
2009,07,25,16,10,23.30
2009,07,25,16,11,23.30
2009,07,25,16,12,23.30
2009,07,25,16,13,23.40
2009,07,25,16,14,23.50
2009,07,25,16,15,23.60
2009,07,25,16,16,23.70
2009,07,25,16,17,23.70
2009,07,25,16,18,23.80
2009,07,25,16,19,23.90
2009,07,25,16,20,23.90
2009,07,25,16,21,23.90
2009,07,25,16,22,23.90
2009,07,25,16,23,23.90
2009,07,25,16,24,24.00
2009,07,25,16,25,24.10
2009,07,25,16,26,24.20
2009,07,25,16,27,24.30
2009,07,25,16,28,24.30
2009,07,25,16,29,24.40
2009,07,25,16,30,24.40
2009,07,25,16,31,24.50
2009,07,25,16,32,24.50
2009,07,25,16,33,24.40
2009,07,25,16,34,24.30
2009,07,25,16,35,24.20
2009,07,25,16,36,24.10
2009,07,25,16,37,24.10
2009,07,25,16,38,24.10
2009,07,25,16,39,24.20
2009,07,25,16,40,24.10
2009,07,25,16,41,24.10
2009,07,25,16,42,24.10
2009,07,25,16,43,24.10
2009,07,25,16,44,24.20
2009,07,25,16,45,24.20
2009,07,25,16,46,24.20
2009,07,25,16,47,24.10
2009,07,25,16,48,24.00
2009,07,25,16,49,23.90
2009,07,25,16,50,24.00
2009,07,25,16,51,24.10
2009,07,25,16,52,24.10
2009,07,25,16,53,24.10
2009,07,25,16,54,24.30
2009,07,25,16,55,24.50
2009,07,25,16,56,24.60
2009,07,25,16,57,24.60
2009,07,25,16,58,24.60
2009,07,25,16,59,24.50
2009,07,25,17,00,24.60
2009,07,25,17,01,24.70
2009,07,25,17,02,24.70
2009,07,25,17,03,24.70
2009,07,25,17,04,24.70
2009,07,25,17,05,24.70
2009,07,25,17,06,24.70
2009,07,25,17,07,24.70
2009,07,25,17,08,24.70
2009,07,25,17,09,24.60
2009,07,25,17,10,24.50
2009,07,25,17,11,24.40
2009,07,25,17,12,24.40
2009,07,25,17,13,24.30
2009,07,25,17,14,24.30
2009,07,25,17,15,24.20
2009,07,25,17,16,24.20
2009,07,25,17,17,24.10
2009,07,25,17,18,24.00
2009,07,25,17,19,23.80